Regional Weather Roundup
Issued by NWS Cleveland, OH

Home | Current Version | Previous Version | Graphics & Text | Print | Product List | Glossary On
Versions: 1 2 3 4 5 6 7 8 9 10 11 12 13 14 15 16 17 18 19 20 21 22 23 24 25 26 27 28 29 30 31 32 33 34 35 36 37 38 39 40 41 42 43 44 45 46 47 48 49 50
000
ASUS41 KCLE 290100
RWRCLE
OHIO REGIONAL WEATHER ROUNDUP
NATIONAL WEATHER SERVICE WILMINGTON, OH
900 PM EDT FRI AUG 28 2015

NOTE: "FAIR" INDICATES FEW OR NO CLOUDS BELOW 12,000 FEET WITH NO
SIGNIFICANT WEATHER AND/OR OBSTRUCTIONS TO VISIBILITY.

OHZ001>008-015>018-024>027-034-035-043-044-290200-
   NORTHWEST OHIO

CITY           SKY/WX    TMP DP  RH WIND       PRES   REMARKS
DEFIANCE       MOCLDY    68  61  78 CALM      30.12S
FINDLAY        CLOUDY    70  59  68 SE3       30.12R
TOLEDO EXPRESS MOCLDY    64  61  90 CALM      30.12S
TOLEDO EXEC    MOCLDY    67  60  78 E6        30.14R
LIMA           CLOUDY    65  61  87 CALM      30.13R
$$

OHZ009>014-019>023-028>033-038-089-290200-
   NORTHEAST OHIO

CITY           SKY/WX    TMP DP  RH WIND       PRES   REMARKS
CLE-HOPKINS    MOCLDY    68  58  70 NE7       30.17S
CLE-LAKEFRONT  CLOUDY    70  57  63 E7        30.15R
CUY CO. ARPT   MOCLDY    66  57  72 E9        30.17R
LORAIN-ELYRIA  MOCLDY    63  58  83 CALM      30.16R
ASHTABULA      PTCLDY    60  59  96 CALM      30.19R
AKRON-CANTON   MOCLDY    70  53  54 CALM      30.16R
WOOSTER        NOT AVBL
MANSFIELD      CLOUDY    68  59  73 NE6       30.16R
YOUNGSTOWN     CLOUDY    66  59  78 NE8       30.17R
$$

OHZ042-051>053-060>062-070>072-077>081-290200-
  SOUTHWEST OHIO

CITY           SKY/WX    TMP DP  RH WIND       PRES   REMARKS
CINC-COVINGTON MOCLDY    70  58  65 SE5       30.11S
CINC-LUNKEN    PTCLDY    65  62  90 CALM      30.11S
HAMILTON       PTCLDY    65  60  84 CALM      30.11S
DAYTON         NOT AVBL
WRIGHT-PAT AFB MOCLDY    70  60  70 E3        30.12S
DAYTON GENERAL PTCLDY    69  56  62 E6        30.12S
WILMINGTON     PTCLDY    67  58  72 E5        30.13S
$$

OHZ036-037-039>041-045>050-054>059-063>069-073>076-082>088-290200-
  CENTRAL AND SOUTHEAST OHIO

CITY           SKY/WX    TMP DP  RH WIND       PRES   REMARKS
COLUMBUS       MOCLDY    73  56  54 SE3       30.13S
OSU AIRPORT    PTCLDY    70  56  61 CALM      30.13S
BOLTON FIELD   NOT AVBL
RICKENBACK AFB MOCLDY    66  59  77 SE3       30.13S
NEWARK         MOCLDY    63  59  87 CALM      30.14R
MARION         MOCLDY    65  57  75 E3        30.14S
LANCASTER      MOCLDY    62  58  86 CALM      30.15R
ZANESVILLE     MOCLDY    67  56  67 CALM      30.15R
NEW PHILLY     PTCLDY    63  57  81 CALM      30.16R
$$


USA.gov is the U.S. government's official web portal to all federal, state and local government web resources and services.